Time,TemperatureF,DewpointF,PressureIn,WindDirection,WindDirectionDegrees,WindSpeedMPH,WindSpeedGustMPH,Humidity,HourlyPrecipIn,Conditions,Clouds,dailyrainin,SoftwareType,DateUTC
2013-03-04 00:52:00,14.0,-99.9,30.08,NNW,339,9.0,12.0,-999,-99.99,,,-99.99,,2013-03-04 05:52:00,
2013-03-04 01:11:00,11.0,-99.9,30.08,NW,309,6.0,9.0,-999,-99.99,,,-99.99,,2013-03-04 06:11:00,
2013-03-04 02:22:00,12.0,-99.9,30.09,NW,305,7.0,9.0,-999,-99.99,,,-99.99,,2013-03-04 07:22:00,
2013-03-04 02:52:00,11.0,-99.9,30.09,NW,307,7.0,11.0,-999,-99.99,,,-99.99,,2013-03-04 07:52:00,
2013-03-04 03:12:00,11.0,-99.9,30.09,NW,316,5.0,8.0,-999,-99.99,,,-99.99,,2013-03-04 08:12:00,
2013-03-04 03:53:00,10.0,-99.9,30.09,NW,311,7.0,10.0,-999,-99.99,,,-99.99,,2013-03-04 08:53:00,
2013-03-04 04:22:00,10.0,-99.9,30.09,NW,312,6.0,11.0,-999,-99.99,,,-99.99,,2013-03-04 09:22:00,
2013-03-04 04:42:00,9.0,-99.9,30.10,NW,319,7.0,11.0,-999,-99.99,,,-99.99,,2013-03-04 09:42:00,
2013-03-04 05:52:00,8.0,-99.9,30.11,NW,323,8.0,13.0,-999,-99.99,,,-99.99,,2013-03-04 10:52:00,
2013-03-04 06:11:00,8.0,-99.9,30.12,NW,315,7.0,12.0,-999,-99.99,,,-99.99,,2013-03-04 11:11:00,
2013-03-04 07:22:00,7.0,-99.9,30.13,NW,325,8.0,12.0,-999,-99.99,,,-99.99,,2013-03-04 12:22:00,
2013-03-04 07:43:00,7.0,-99.9,30.14,NW,326,10.0,14.0,-999,-99.99,,,-99.99,,2013-03-04 12:43:00,
2013-03-04 08:11:00,7.0,-99.9,30.14,NNW,334,11.0,14.0,-999,-99.99,,,-99.99,,2013-03-04 13:11:00,
2013-03-04 08:52:00,8.0,-99.9,30.14,NNW,330,10.0,14.0,-999,-99.99,,,-99.99,,2013-03-04 13:52:00,
2013-03-04 09:22:00,10.0,-99.9,30.14,NNW,332,9.0,12.0,-999,-99.99,,,-99.99,,2013-03-04 14:22:00,
2013-03-04 09:42:00,10.0,-99.9,30.14,NNW,340,9.0,12.0,-999,-99.99,,,-99.99,,2013-03-04 14:42:00,
2013-03-04 10:52:00,12.0,-99.9,30.15,NW,318,6.0,8.0,-999,-99.99,,,-99.99,,2013-03-04 15:52:00,
2013-03-04 11:11:00,13.0,-99.9,30.15,NNW,343,5.0,8.0,-999,-99.99,,,-99.99,,2013-03-04 16:11:00,
2013-03-04 12:22:00,17.0,-99.9,30.15,NNW,333,6.0,10.0,-999,-99.99,,,-99.99,,2013-03-04 17:22:00,
2013-03-04 12:42:00,18.0,-99.9,30.14,NNW,340,6.0,11.0,-999,-99.99,,,-99.99,,2013-03-04 17:42:00,
2013-03-04 13:11:00,18.0,-99.9,30.14,NNW,334,9.0,13.0,-999,-99.99,,,-99.99,,2013-03-04 18:11:00,
2013-03-04 13:52:00,21.0,-99.9,30.12,NNW,342,9.0,12.0,-999,-99.99,,,-99.99,,2013-03-04 18:52:00,
2013-03-04 14:12:00,21.0,-99.9,30.12,NNW,341,11.0,14.0,-999,-99.99,,,-99.99,,2013-03-04 19:12:00,
2013-03-04 15:22:00,24.0,-99.9,30.11,NNW,328,8.0,13.0,-999,-99.99,,,-99.99,,2013-03-04 20:22:00,
2013-03-04 15:53:00,25.0,-99.9,30.11,NW,308,7.0,12.0,-999,-99.99,,,-99.99,,2013-03-04 20:53:00,
2013-03-04 16:12:00,25.0,-99.9,30.11,NW,317,11.0,14.0,-999,-99.99,,,-99.99,,2013-03-04 21:12:00,
2013-03-04 16:53:00,26.0,-99.9,30.10,NW,323,10.0,13.0,-999,-99.99,,,-99.99,,2013-03-04 21:53:00,
2013-03-04 17:22:00,26.0,-99.9,30.11,NNW,333,8.0,12.0,-999,-99.99,,,-99.99,,2013-03-04 22:22:00,
2013-03-04 17:43:00,26.0,-99.9,30.11,NW,326,8.0,13.0,-999,-99.99,,,-99.99,,2013-03-04 22:43:00,
2013-03-04 18:22:00,25.0,-99.9,30.11,NW,314,9.0,14.0,-999,-99.99,,,-99.99,,2013-03-04 23:22:00,
2013-03-04 18:53:00,24.0,-99.9,30.11,WNW,303,9.0,17.0,-999,-99.99,,,-99.99,,2013-03-04 23:53:00,
2013-03-04 19:12:00,23.0,-99.9,30.12,WNW,300,9.0,14.0,-999,-99.99,,,-99.99,,2013-03-05 00:12:00,
2013-03-04 19:52:00,21.0,-99.9,30.13,WNW,298,11.0,17.0,-999,-99.99,,,-99.99,,2013-03-05 00:52:00,
2013-03-04 20:22:00,21.0,-99.9,30.14,WNW,299,12.0,17.0,-999,-99.99,,,-99.99,,2013-03-05 01:22:00,
2013-03-04 20:42:00,21.0,-99.9,30.14,NW,310,10.0,16.0,-999,-99.99,,,-99.99,,2013-03-05 01:42:00,
2013-03-04 21:22:00,20.0,-99.9,30.14,NW,314,7.0,15.0,-999,-99.99,,,-99.99,,2013-03-05 02:22:00,
2013-03-04 21:53:00,20.0,-99.9,30.14,NW,314,9.0,12.0,-999,-99.99,,,-99.99,,2013-03-05 02:53:00,
2013-03-04 22:12:00,20.0,-99.9,30.14,NW,324,7.0,12.0,-999,-99.99,,,-99.99,,2013-03-05 03:12:00,
2013-03-04 22:52:00,17.0,-99.9,30.15,NNW,327,6.0,8.0,-999,-99.99,,,-99.99,,2013-03-05 03:52:00,
2013-03-04 23:22:00,17.0,-99.9,30.16,NW,315,4.0,6.0,-999,-99.99,,,-99.99,,2013-03-05 04:22:00,
2013-03-04 23:42:00,18.0,-99.9,30.15,North,1,4.0,6.0,-999,-99.99,,,-99.99,,2013-03-05 04:42:00,